Nampa, ID

2:16 AM MDT on July 25, 2017 (GMT -0600)
Nampa

Weather History for KMAN - July, 2013

Change the Weather History Date:

Sunday, July 7, 2013

  Actual Average (KBOI) Record (KBOI)
Temperature  
Mean Temperature 76 °F -  
Max Temperature 95 °F 87 °F 108 °F (1989)
Min Temperature 57 °F 55 °F 41 °F (1955)
Cooling Degree Days 11    
Growing Degree Days 26 (Base 50)    
Moisture  
Dew Point 45 °F    
Average Humidity 34    
Maximum Humidity 67    
Minimum Humidity 12    
Precipitation  
Precipitation 0.00 in - - ()
Sea Level Pressure  
Sea Level Pressure 29.80 in    
Wind  
Wind Speed 6 mph (NW)    
Max Wind Speed 10 mph    
Max Gust Speed -    
Visibility 10 miles    
Events      
Averages and records for this station are not official NWS values.
T = Trace of Precipitation, MM = Missing Value Source: NWS Daily Summary

Daily Weather History Graph

Daily Weather History Graph

Search for Another Location

Airport or City:

Trip Planner

Search our weather history database for the weather conditions in past years. The results will help you decide how hot, cold, wet, or windy it might be!

Date:

Astronomy

Jul. 07, 2013 Rise Set
Actual Time 6:12 AM MDT 9:29 PM MDT
Civil Twilight 5:37 AM MDT 10:04 PM MDT
Nautical Twilight 4:51 AM MDT 10:50 PM MDT
Astronomical Twilight 3:55 AM MDT 11:46 PM MDT
Moon 5:54 AM MDT (7/7) 8:53 PM MDT (7/7)
Length of Visible Light 16h 27m
Length of Day
15h 16m
Waning Crescent, 0% of the Moon is Illuminated
Jul 7
Waning Crescent
Jul 8
New
Jul 15
First Quarter
Jul 22
Full
Jul 29
Last Quarter

Hourly Weather History & Observations

Time (MDT) Temp. Dew Point Humidity Pressure Visibility Wind Dir Wind Speed Gust Speed Precip Events Conditions
12:15 AM 73.4 °F 41.0 °F 31% 29.77 in 10.0 mi WNW 6.9 mph - N/A   Clear
12:35 AM 73.4 °F 41.0 °F 31% 29.77 in 10.0 mi WNW 6.9 mph - N/A   Clear
12:55 AM 73.4 °F 39.2 °F 29% 29.78 in 10.0 mi West 4.6 mph - N/A   Clear
1:15 AM 71.6 °F 41.0 °F 33% 29.78 in 10.0 mi WNW 8.1 mph - N/A   Clear
1:35 AM 71.6 °F 42.8 °F 35% 29.79 in 10.0 mi WNW 8.1 mph - N/A   Clear
1:55 AM 71.6 °F 42.8 °F 35% 29.78 in 10.0 mi WNW 8.1 mph - N/A   Clear
2:15 AM 71.6 °F 42.8 °F 35% 29.79 in 10.0 mi WNW 8.1 mph - N/A   Clear
2:35 AM 69.8 °F 42.8 °F 38% 29.79 in 10.0 mi WNW 9.2 mph - N/A   Clear
2:55 AM 68.0 °F 42.8 °F 40% 29.78 in 10.0 mi WNW 10.4 mph - N/A   Clear
3:15 AM 68.0 °F 44.6 °F 43% 29.79 in 10.0 mi WNW 6.9 mph - N/A   Clear
3:35 AM 68.0 °F 44.6 °F 43% 29.79 in 10.0 mi WNW 8.1 mph - N/A   Clear
3:55 AM 66.2 °F 44.6 °F 46% 29.80 in 10.0 mi West 5.8 mph - N/A   Clear
4:15 AM 66.2 °F 44.6 °F 46% 29.80 in 10.0 mi WNW 6.9 mph - N/A   Clear
4:35 AM 66.2 °F 44.6 °F 46% 29.80 in 10.0 mi WNW 8.1 mph - N/A   Clear
4:55 AM 64.4 °F 44.6 °F 49% 29.81 in 10.0 mi West 5.8 mph - N/A   Clear
5:15 AM 64.4 °F 44.6 °F 49% 29.81 in 10.0 mi WNW 4.6 mph - N/A   Clear
5:35 AM 64.4 °F 44.6 °F 49% 29.82 in 10.0 mi WNW 5.8 mph - N/A   Clear
5:55 AM 64.4 °F 44.6 °F 49% 29.82 in 10.0 mi NW 5.8 mph - N/A   Clear
6:15 AM 62.6 °F 44.6 °F 52% 29.84 in 10.0 mi SE 4.6 mph - N/A   Clear
6:35 AM 57.2 °F 46.4 °F 67% 29.83 in 10.0 mi Calm Calm - N/A   Clear
6:55 AM 57.2 °F 46.4 °F 67% 29.84 in 10.0 mi SE 3.5 mph - N/A   Clear
7:15 AM 59.0 °F 46.4 °F 63% 29.85 in 10.0 mi SSE 3.5 mph - N/A   Clear
7:35 AM 62.6 °F 48.2 °F 59% 29.86 in 10.0 mi Calm Calm - N/A   Clear
7:55 AM 64.4 °F 48.2 °F 56% 29.86 in 10.0 mi Calm Calm - N/A   Clear
8:15 AM 66.2 °F 50.0 °F 56% 29.87 in 10.0 mi SE 4.6 mph - N/A   Clear
8:35 AM 68.0 °F 50.0 °F 52% 29.87 in 10.0 mi SSE 3.5 mph - N/A   Clear
8:55 AM 69.8 °F 50.0 °F 49% 29.87 in 10.0 mi SSE 4.6 mph - N/A   Clear
9:15 AM 71.6 °F 46.4 °F 41% 29.87 in 10.0 mi WSW 4.6 mph - N/A   Clear
9:35 AM 73.4 °F 44.6 °F 36% 29.87 in 10.0 mi WNW 4.6 mph - N/A   Clear
9:55 AM 73.4 °F 46.4 °F 38% 29.87 in 10.0 mi WNW 4.6 mph - N/A   Clear
10:15 AM 75.2 °F 44.6 °F 34% 29.87 in 10.0 mi NW 4.6 mph - N/A   Clear
10:35 AM 77.0 °F 46.4 °F 34% 29.86 in 10.0 mi NW 4.6 mph - N/A   Clear
10:55 AM 77.0 °F 46.4 °F 34% 29.86 in 10.0 mi NW 5.8 mph - N/A   Clear
11:15 AM 80.6 °F 46.4 °F 30% 29.86 in 10.0 mi NNW 3.5 mph - N/A   Clear
11:35 AM 80.6 °F 46.4 °F 30% 29.86 in 10.0 mi WNW 4.6 mph - N/A   Clear
11:55 AM 80.6 °F 48.2 °F 32% 29.85 in 10.0 mi WSW 3.5 mph - N/A   Clear
12:15 PM 82.4 °F 48.2 °F 30% 29.85 in 10.0 mi West 4.6 mph - N/A   Clear
12:35 PM 82.4 °F 48.2 °F 30% 29.84 in 10.0 mi NNW 5.8 mph - N/A   Clear
12:55 PM 84.2 °F 48.2 °F 29% 29.84 in 10.0 mi North 5.8 mph - N/A   Clear
1:15 PM 84.2 °F 48.2 °F 29% 29.83 in 10.0 mi NNW 5.8 mph - N/A   Clear
1:35 PM 86.0 °F 48.2 °F 27% 29.83 in 10.0 mi NE 5.8 mph - N/A   Clear
1:55 PM 86.0 °F 46.4 °F 25% 29.83 in 10.0 mi WSW 3.5 mph - N/A   Clear
2:15 PM 87.8 °F 46.4 °F 24% 29.82 in 10.0 mi North 5.8 mph - N/A   Clear
2:35 PM 87.8 °F 48.2 °F 25% 29.82 in 10.0 mi NNW 5.8 mph - N/A   Clear
2:55 PM 89.6 °F 46.4 °F 22% 29.81 in 10.0 mi North 5.8 mph - N/A   Clear
3:15 PM 89.6 °F 44.6 °F 21% 29.80 in 10.0 mi NW 5.8 mph - N/A   Clear
3:35 PM 91.4 °F 44.6 °F 20% 29.80 in 10.0 mi North 8.1 mph - N/A   Clear
3:55 PM 91.4 °F 42.8 °F 18% 29.79 in 10.0 mi North 9.2 mph - N/A   Clear
4:15 PM 93.2 °F 46.4 °F 20% 29.78 in 10.0 mi North 8.1 mph - N/A   Clear
4:35 PM 93.2 °F 39.2 °F 15% 29.78 in 10.0 mi North 4.6 mph - N/A   Clear
4:55 PM 93.2 °F 39.2 °F 15% 29.77 in 10.0 mi North 8.1 mph - N/A   Clear
5:15 PM 93.2 °F 35.6 °F 13% 29.76 in 10.0 mi NE 8.1 mph - N/A   Clear
5:35 PM 93.2 °F 37.4 °F 14% 29.76 in 10.0 mi NE 8.1 mph - N/A   Clear
5:55 PM 93.2 °F 37.4 °F 14% 29.75 in 10.0 mi NE 10.4 mph - N/A   Clear
6:15 PM 95.0 °F 35.6 °F 12% 29.74 in 10.0 mi NNE 8.1 mph - N/A   Clear
6:35 PM 95.0 °F 35.6 °F 12% 29.73 in 10.0 mi NNE 8.1 mph - N/A   Clear
6:55 PM 93.2 °F 37.4 °F 14% 29.73 in 10.0 mi NNE 4.6 mph - N/A   Clear
7:15 PM 93.2 °F 37.4 °F 14% 29.73 in 10.0 mi North 6.9 mph - N/A   Clear
7:35 PM 93.2 °F 39.2 °F 15% 29.72 in 10.0 mi NNW 6.9 mph - N/A   Clear
7:55 PM 93.2 °F 41.0 °F 16% 29.72 in 10.0 mi North 6.9 mph - N/A   Clear
8:15 PM 91.4 °F 44.6 °F 20% 29.72 in 10.0 mi North 5.8 mph - N/A   Clear
8:35 PM 91.4 °F 44.6 °F 20% 29.73 in 10.0 mi North 5.8 mph - N/A   Clear
8:55 PM 89.6 °F 42.8 °F 20% 29.73 in 10.0 mi North 4.6 mph - N/A   Clear
9:15 PM 89.6 °F 41.0 °F 18% 29.73 in 10.0 mi North 4.6 mph - N/A   Clear
9:35 PM 86.0 °F 41.0 °F 20% 29.74 in 10.0 mi Calm Calm - N/A   Clear
9:55 PM 80.6 °F 46.4 °F 30% 29.74 in 10.0 mi Calm Calm - N/A   Clear
10:15 PM 77.0 °F 48.2 °F 36% 29.75 in 10.0 mi SE 3.5 mph - N/A   Clear
10:35 PM 73.4 °F 51.8 °F 47% 29.76 in 10.0 mi SE 4.6 mph - N/A   Clear
10:55 PM 73.4 °F 51.8 °F 47% 29.76 in 10.0 mi SE 3.5 mph - N/A   Clear
11:15 PM 73.4 °F 51.8 °F 47% 29.77 in 10.0 mi Calm Calm - N/A   Clear
11:35 PM 69.8 °F 53.6 °F 56% 29.76 in 10.0 mi Calm Calm - N/A   Clear
11:55 PM 69.8 °F 53.6 °F 56% 29.77 in 10.0 mi NNW 8.1 mph - N/A   Clear